Location: Krakow
(50.0830°N, 19.9170°E)
Time: 11:27:15
(UTC+01:00)

Explorer 11/Cluster Stage 4 - Visible Passes

Search period start: 31 January 2023 00:00
Search period end: 10 February 2023 00:00
Orbit: 466 x 1244 km, 28.8° (Epoch: 30 January)

Date Brightness Start Highest point End Pass type
(mag) Time Alt. Az. Time Alt. Az. Time Alt. Az.
31 Jan 9.8 06:35:36 10° S 06:38:23 12° S 06:41:07 10° SSE visible
01 Feb 9.7 06:21:31 10° SSW 06:24:49 13° S 06:28:02 10° SSE visible
02 Feb 9.6 06:07:36 10° SSW 06:11:14 14° S 06:14:48 10° SE visible
03 Feb 9.6 05:53:46 10° SSW 05:57:38 14° S 06:01:28 10° SE visible
04 Feb 9.5 05:40:02 10° SSW 05:44:01 14° S 05:48:00 10° SE visible
05 Feb 9.5 05:26:23 10° SSW 05:30:24 15° S 05:34:27 10° SE visible
06 Feb 9.4 05:12:49 10° SSW 05:16:46 15° S 05:20:48 10° SSE visible
07 Feb 9.3 04:59:19 10° SSW 05:03:08 14° S 05:07:04 10° SSE visible
08 Feb 9.3 04:46:07 10° SSW 04:49:30 14° S 04:53:15 10° SSE visible
09 Feb 9.2 04:33:35 12° SSW 04:35:54 13° S 04:39:20 10° SSE visible
